GW4873 Weather Reports


time (UTC)temp
C
wind
direction
speed
KPH
gust
KPH
rain 1hr
cm
rain 24hr
cm
rain mn
cm
humidity
%
barometer
mb
20260509224529 33 13 3.2 16.1 0.00 0.00 0.00 39 1008.0
20260509224026 33 188 0.0 3.2 0.00 0.00 0.00 39 1007.6
20260509223523 33 320 8.0 16.1 0.00 0.00 0.00 37 1007.8
20260509223021 32 301 4.8 16.1 0.00 0.00 0.00 40 1007.7
20260509222516 33 253 4.8 12.9 0.00 0.00 0.00 39 1007.9
20260509222012 33 204 3.2 12.9 0.00 0.00 0.00 39 1007.9
20260509221508 32 5 12.9 16.1 0.00 0.00 0.00 38 1008.1
20260509221004 32 113 0.0 3.2 0.00 0.00 0.00 40 1007.9
20260509220500 32 83 11.3 12.9 0.00 0.00 0.00 38 1008.0
20260509215956 32 325 19.3 24.1 0.00 0.00 0.00 38 1008.1
20260509215452 32 49 16.1 20.9 0.00 0.00 0.00 39 1008.1
20260509214950 32 64 3.2 8.0 0.00 0.00 0.00 38 1008.0
20260509214447 32 315 0.0 8.0 0.00 0.00 0.00 37 1008.0
20260509213943 32 16 3.2 8.0 0.00 0.00 0.00 39 1008.3
20260509213439 32 66 3.2 12.9 0.00 0.00 0.00 37 1008.1
20260509212937 32 40 6.4 16.1 0.00 0.00 0.00 37 1008.2
20260509212434 32 173 3.2 8.0 0.00 0.00 0.00 37 1008.3
20260509211930 32 351 1.6 12.9 0.00 0.00 0.00 37 1008.4
20260509211426 32 72 6.4 16.1 0.00 0.00 0.00 35 1008.3
20260509210922 32 66 3.2 8.0 0.00 0.00 0.00 36 1008.3
20260509210421 33 333 9.7 16.1 0.00 0.00 0.00 32 1008.4
20260509205921 32 220 1.6 20.9 0.00 0.00 0.00 35 1008.5
20260509205421 32 39 6.4 8.0 0.00 0.00 0.00 32 1008.9
20260509204917 32 36 6.4 20.9 0.00 0.00 0.00 31 1008.7
20260509204414 32 35 8.0 12.9 0.00 0.00 0.00 32 1008.7
20260509203910 32 336 1.6 12.9 0.00 0.00 0.00 36 1008.9
20260509203406 32 295 3.2 16.1 0.00 0.00 0.00 34 1009.0
20260509202904 31 216 1.6 16.1 0.00 0.00 0.00 27 1009.2
20260509202359 31 203 1.6 8.0 0.00 0.00 0.00 35 1008.9
20260509201854 31 106 1.6 12.9 0.00 0.00 0.00 36 1009.1
20260509201350 32 184 9.7 16.1 0.00 0.00 0.00 34 1009.2
20260509200847 31 39 6.4 20.9 0.00 0.00 0.00 36 1009.4
20260509200342 31 215 6.4 20.9 0.00 0.00 0.00 37 1009.4
20260509195840 31 72 9.7 16.1 0.00 0.00 0.00 41 1009.3
20260509195339 31 69 6.4 20.9 0.00 0.00 0.00 43 1009.4
20260509194839 31 216 14.5 16.1 0.00 0.00 0.00 44 1009.3
20260509194335 31 167 3.2 16.1 0.00 0.00 0.00 49 1009.5
20260509193832 31 1 25.7 29.0 0.00 0.00 0.00 46 1009.5
20260509193326 31 80 9.7 24.1 0.00 0.00 0.00 49 1009.5
20260509192823 31 354 4.8 20.9 0.00 0.00 0.00 46 1009.8
20260509192319 31 68 17.7 24.1 0.00 0.00 0.00 45 1009.6
20260509191814 32 92 4.8 12.9 0.00 0.00 0.00 42 1009.8
20260509191310 32 215 0.0 8.0 0.00 0.00 0.00 45 1009.8
20260509190806 31 277 1.6 8.0 0.00 0.00 0.00 46 1009.8
20260509190304 31 220 3.2 3.2 0.00 0.00 0.00 48 1009.9
20260509185801 31 25 0.0 12.9 0.00 0.00 0.00 43 1010.0
20260509185257 31 353 22.5 29.0 0.00 0.00 0.00 42 1009.9
20260509184754 31 217 1.6 3.2 0.00 0.00 0.00 46 1010.0
20260509184252 31 323 8.0 16.1 0.00 0.00 0.00 46 1009.9
20260509183748 30 146 4.8 8.0 0.00 0.00 0.00 47 1010.1
20260509183244 30 317 6.4 12.9 0.00 0.00 0.00 46 1010.1
20260509182739 30 13 11.3 16.1 0.00 0.00 0.00 48 1010.2
20260509182237 31 46 9.7 12.9 0.00 0.00 0.00 45 1010.3
20260509181734 31 215 3.2 8.0 0.00 0.00 0.00 46 1010.2
20260509181231 30 100 4.8 8.0 0.00 0.00 0.00 46 1010.3
20260509180728 30 266 3.2 16.1 0.00 0.00 0.00 48 1010.4
20260509180225 31 243 11.3 16.1 0.00 0.00 0.00 49 1010.5
20260509175721 30 307 11.3 20.9 0.00 0.00 0.00 47 1010.5
20260509175217 30 275 3.2 20.9 0.00 0.00 0.00 51 1010.5
20260509174713 30 35 4.8 12.9 0.00 0.00 0.00 49 1010.5
20260509174209 30 109 0.0 16.1 0.00 0.00 0.00 49 1010.6
20260509173705 30 82 0.0 12.9 0.00 0.00 0.00 48 1010.7
20260509173201 30 75 16.1 20.9 0.00 0.00 0.00 47 1010.7
20260509172657 30 321 4.8 16.1 0.00 0.00 0.00 50 1010.7
20260509172154 30 306 9.7 24.1 0.00 0.00 0.00 48 1010.7
20260509171649 30 321 6.4 20.9 0.00 0.00 0.00 47 1010.6
20260509171146 30 354 17.7 20.9 0.00 0.00 0.00 47 1010.8
20260509170643 30 273 9.7 12.9 0.00 0.00 0.00 49 1010.8
20260509170138 30 23 14.5 24.1 0.00 0.00 0.00 50 1010.7
20260509165637 30 182 9.7 16.1 0.00 0.00 0.00 50 1010.8
20260509165133 29 325 3.2 24.1 0.00 0.00 0.00 53 1010.8
20260509164629 29 235 14.5 16.1 0.00 0.00 0.00 54 1010.9
20260509164125 28 334 14.5 20.9 0.00 0.00 0.00 52 1011.0
20260509163623 28 2 14.5 20.9 0.00 0.00 0.00 51 1011.1
20260509163118 28 47 11.3 29.0 0.00 0.00 0.00 54 1010.9
20260509162615 28 357 24.1 29.0 0.00 0.00 0.00 53 1011.0
20260509162111 28 6 24.1 29.0 0.00 0.00 0.00 52 1011.2
20260509161608 27 358 12.9 16.1 0.00 0.00 0.00 53 1011.1
20260509161108 28 328 14.5 20.9 0.00 0.00 0.00 53 1011.2
20260509160604 28 335 8.0 16.1 0.00 0.00 0.00 55 1011.1
20260509160059 28 14 3.2 12.9 0.00 0.00 0.00 55 1011.1
20260509155556 27 54 14.5 20.9 0.00 0.00 0.00 56 1011.1
20260509155053 27 352 6.4 16.1 0.00 0.00 0.00 57 1011.0
20260509154548 27 282 8.0 24.1 0.00 0.00 0.00 59 1011.1
20260509154046 27 183 3.2 16.1 0.00 0.00 0.00 62 1010.9
20260509153543 27 347 20.9 29.0 0.00 0.00 0.00 61 1010.8
20260509153040 26 38 11.3 20.9 0.00 0.00 0.00 61 1011.0
20260509152536 26 356 14.5 29.0 0.00 0.00 0.00 62 1010.8
20260509152033 26 118 1.6 20.9 0.00 0.00 0.00 64 1010.9
20260509151529 26 359 11.3 16.1 0.00 0.00 0.00 62 1011.0
20260509151027 26 2 11.3 24.1 0.00 0.00 0.00 62 1010.9
20260509150524 26 339 12.9 20.9 0.00 0.00 0.00 63 1011.2
20260509150023 26 23 9.7 16.1 0.00 0.00 0.00 62 1011.0
20260509145518 25 8 6.4 16.1 0.00 0.00 0.00 64 1011.1
20260509145013 25 71 6.4 20.9 0.00 0.00 0.00 65 1011.0
20260509144511 25 63 6.4 12.9 0.00 0.00 0.00 67 1010.9
20260509144008 24 277 4.8 16.1 0.00 0.00 0.00 70 1011.0
20260509143504 24 48 14.5 29.0 0.00 0.00 0.00 68 1011.0
20260509143001 25 321 14.5 24.1 0.00 0.00 0.00 68 1011.1
20260509142458 24 310 11.3 20.9 0.00 0.00 0.00 70 1011.0
20260509141953 23 281 9.7 20.9 0.00 0.00 0.00 72 1011.3
20260509141450 24 331 12.9 20.9 0.00 0.00 0.00 71 1011.2
20260509140947 24 320 4.8 16.1 0.00 0.00 0.00 72 1011.3
20260509140443 24 296 8.0 12.9 0.00 0.00 0.00 73 1011.3
20260509135942 23 295 4.8 20.9 0.00 0.00 0.00 74 1011.2
20260509135438 23 293 4.8 20.9 0.00 0.00 0.00 74 1011.5
20260509134936 23 210 12.9 16.1 0.00 0.00 0.00 75 1011.4
20260509134433 22 234 0.0 12.9 0.00 0.00 0.00 77 1011.5
20260509133931 22 257 6.4 16.1 0.00 0.00 0.00 77 1011.3
20260509133427 22 229 9.7 16.1 0.00 0.00 0.00 77 1011.4
20260509132925 22 342 12.9 16.1 0.00 0.00 0.00 76 1011.3
20260509132423 21 183 4.8 12.9 0.00 0.00 0.00 77 1011.2
20260509131920 21 236 8.0 12.9 0.00 0.00 0.00 76 1011.2
20260509131417 21 280 0.0 12.9 0.00 0.00 0.00 76 1011.2
20260509130914 21 347 11.3 12.9 0.00 0.00 0.00 77 1011.1
20260509130409 21 84 3.2 12.9 0.00 0.00 0.00 78 1011.2
20260509125906 20 16 4.8 12.9 0.00 0.00 0.00 78 1011.1
20260509125403 20 188 0.0 20.9 0.00 0.00 0.00 78 1011.4
20260509124858 20 320 1.6 12.9 0.00 0.00 0.00 79 1011.2
20260509124356 20 0 4.8 12.9 0.00 0.00 0.00 78 1011.0
20260509123854 20 233 3.2 12.9 0.00 0.00 0.00 79 1011.1
20260509123351 20 359 1.6 8.0 0.00 0.00 0.00 80 1011.0
20260509122846 20 341 8.0 12.9 0.00 0.00 0.00 80 1010.9
20260509122343 19 328 8.0 16.1 0.00 0.00 0.00 80 1010.9
20260509121840 19 308 4.8 12.9 0.00 0.00 0.00 80 1010.9
20260509121337 19 285 6.4 8.0 0.00 0.00 0.00 80 1010.7
20260509120835 19 349 1.6 8.0 0.00 0.00 0.00 80 1010.7
20260509120333 19 234 6.4 8.0 0.00 0.00 0.00 80 1010.7
20260509115831 19 330 6.4 8.0 0.00 0.00 0.00 80 1010.4
20260509115328 19 27 8.0 12.9 0.00 0.00 0.00 80 1010.5
20260509114825 19 50 4.8 8.0 0.00 0.00 0.00 80 1010.5
20260509114324 19 18 4.8 8.0 0.00 0.00 0.00 80 1010.4
20260509113823 19 302 1.6 8.0 0.00 0.00 0.00 79 1010.3
20260509113319 19 81 0.0 8.0 0.00 0.00 0.00 79 1010.1
20260509112816 19 80 3.2 8.0 0.00 0.00 0.00 80 1010.1
20260509112313 19 266 0.0 3.2 0.00 0.00 0.00 80 1009.8
20260509111810 20 131 0.0 8.0 0.00 0.00 0.00 79 1009.5
20260509111307 20 217 0.0 8.0 0.00 0.00 0.00 78 1009.6
20260509110805 20 54 1.6 12.9 0.00 0.00 0.00 78 1009.5
20260509110301 20 346 11.3 20.9 0.00 0.00 0.00 78 1009.5
20260509105759 20 13 11.3 20.9 0.00 0.00 0.00 78 1009.4
20260509105257 20 38 3.2 16.1 0.00 0.00 0.00 78 1009.5
20260509104753 20 322 9.7 16.1 0.00 0.00 0.00 78 1009.5
20260509104250 19 277 3.2 16.1 0.00 0.00 0.00 79 1010.0
20260509103748 19 254 6.4 12.9 0.00 0.00 0.00 78 1009.8
20260509103245 19 235 9.7 12.9 0.00 0.00 0.00 78 1009.9
20260509102744 18 259 6.4 16.1 0.00 0.00 0.00 77 1009.9
20260509102240 18 282 11.3 20.9 0.00 0.00 0.00 78 1010.0
20260509101737 18 314 9.7 16.1 0.00 0.00 0.00 80 1009.8
20260509101233 18 226 8.0 8.0 0.00 0.00 0.00 83 1010.0
20260509100730 19 176 0.0 0.0 0.00 0.00 0.00 82 1009.5
20260509100228 19 190 0.0 8.0 0.00 0.00 0.00 82 1009.9
20260509095724 19 341 8.0 12.9 0.00 0.00 0.00 80 1009.5
20260509095221 20 156 0.0 3.2 0.00 0.00 0.00 79 1009.6
20260509094718 20 12 8.0 8.0 0.00 0.00 0.00 77 1009.6
20260509094215 20 191 0.0 3.2 0.00 0.00 0.00 76 1009.4
20260509093713 20 29 3.2 12.9 0.00 0.00 0.00 76 1009.1
20260509093210 20 342 19.3 41.8 0.00 0.00 0.00 77 1009.4
20260509092708 20 245 6.4 12.9 0.00 0.00 0.00 80 1008.6
20260509092206 20 322 17.7 29.0 0.00 0.00 0.00 85 1007.0
20260509091704 20 157 16.1 16.1 0.00 0.00 0.00 84 1006.4
20260509091159 20 103 9.7 16.1 0.00 0.00 0.00 83 1006.4
20260509090658 20 131 14.5 24.1 0.00 0.00 0.00 82 1006.3
20260509090155 20 156 14.5 24.1 0.00 0.00 0.00 82 1006.4
20260509085652 20 195 3.2 24.1 0.00 0.00 0.00 82 1006.7
20260509085148 20 128 8.0 16.1 0.00 0.00 0.00 82 1006.9
20260509084646 20 311 6.4 29.0 0.00 0.00 0.00 82 1007.1
20260509084143 20 194 4.8 20.9 0.00 0.00 0.00 82 1006.8
20260509083640 20 151 3.2 16.1 0.00 0.00 0.00 83 1007.2
20260509083136 20 120 1.6 29.0 0.00 0.00 0.00 84 1007.4
20260509082634 20 252 8.0 24.1 0.00 0.00 0.00 84 1007.4
20260509082130 20 139 3.2 12.9 0.00 0.00 0.00 84 1007.5
20260509081627 20 119 6.4 16.1 0.00 0.00 0.00 85 1007.6
20260509081125 20 222 3.2 20.9 0.00 0.00 0.00 87 1008.0
20260509080623 20 139 4.8 24.1 0.00 0.00 0.00 85 1007.9
20260509080120 20 181 3.2 20.9 0.00 0.00 0.00 84 1008.4
20260509075618 21 118 11.3 16.1 0.00 0.00 0.00 79 1008.2
20260509075116 21 133 8.0 16.1 0.00 0.00 0.00 75 1008.2
20260509074612 21 173 1.6 3.2 0.00 0.00 0.00 76 1008.7
20260509074109 21 132 4.8 8.0 0.00 0.00 0.00 75 1008.7
20260509073606 21 177 1.6 12.9 0.00 0.00 0.00 77 1008.9
20260509073102 21 156 14.5 20.9 0.00 0.00 0.00 77 1009.2
20260509072558 21 151 9.7 16.1 0.00 0.00 0.00 81 1009.9
20260509072055 20 173 0.0 3.2 0.00 0.00 0.00 82 1010.4
20260509071552 20 205 8.0 16.1 0.00 0.00 0.00 82 1010.6
20260509071050 20 202 4.8 20.9 0.00 0.00 0.00 85 1010.6
20260509070547 20 226 9.7 16.1 0.00 0.00 0.00 88 1011.1
20260509070043 21 259 17.7 29.0 0.00 0.00 0.00 89 1011.6
20260509065538 21 220 6.4 12.9 0.00 0.00 0.00 89 1011.7
20260509065035 20 191 9.7 16.1 0.00 0.00 0.00 90 1011.8
20260509064532 20 313 16.1 24.1 0.00 0.00 0.00 92 1012.3
20260509064031 20 242 20.9 24.1 0.00 0.00 0.00 92 1012.4
20260509063525 20 220 3.2 12.9 0.00 0.00 0.00 92 1012.3
20260509063023 20 246 6.4 12.9 0.00 0.00 0.00 92 1012.2
20260509062520 20 241 4.8 8.0 0.00 0.00 0.00 92 1011.9
20260509062018 20 235 6.4 8.0 0.00 0.00 0.00 93 1011.8
20260509061515 20 256 9.7 12.9 0.00 0.00 0.00 93 1012.0
20260509061012 20 184 0.0 8.0 0.00 0.00 0.00 93 1011.8
20260509060509 20 204 0.0 8.0 0.00 0.00 0.00 93 1011.8
20260509060005 20 147 0.0 3.2 0.00 0.00 0.00 92 1012.0
20260509055500 20 141 0.0 0.0 0.00 0.00 0.00 92 1011.5
20260509054957 20 150 0.0 8.0 0.00 0.00 0.00 92 1011.4
20260509054453 20 181 0.0 3.2 0.00 0.00 0.00 92 1011.8
20260509053952 20 27 4.8 8.0 0.00 0.00 0.00 92 1011.5
20260509053449 20 177 1.6 3.2 0.00 0.00 0.00 92 1011.5
20260509052947 20 186 0.0 3.2 0.00 0.00 0.00 91 1011.6
20260509052444 20 273 11.3 12.9 0.00 0.00 0.00 91 1011.6
20260509051942 20 38 9.7 24.1 0.00 0.00 0.00 90 1011.6
20260509051439 21 26 6.4 8.0 0.00 0.00 0.00 90 1011.1
20260509050936 21 161 0.0 0.0 0.00 0.00 0.00 89 1010.7
20260509050433 21 211 3.2 8.0 0.00 0.00 0.00 89 1010.4
20260509045930 21 135 0.0 3.2 0.00 0.00 0.00 89 1010.6
20260509045427 21 113 3.2 16.1 0.00 0.00 0.00 89 1010.3
20260509044923 21 159 1.6 8.0 0.00 0.00 0.00 89 1010.2
20260509044421 21 147 3.2 8.0 0.00 0.00 0.00 89 1010.4
20260509043919 21 123 0.0 3.2 0.00 0.00 0.00 89 1010.6
20260509043414 21 140 0.0 3.2 0.00 0.00 0.00 89 1010.6
20260509042910 21 160 1.6 3.2 0.00 0.00 0.00 89 1010.6
20260509042407 21 162 1.6 3.2 0.00 0.00 0.00 88 1010.6
20260509041903 21 137 0.0 0.0 0.00 0.00 0.00 88 1010.6
20260509041401 21 146 0.0 3.2 0.00 0.00 0.00 88 1010.6
20260509040858 21 150 0.0 3.2 0.00 0.00 0.00 88 1010.6
20260509040356 21 155 0.0 0.0 0.00 0.00 0.00 88 1010.7
20260509035853 21 139 0.0 3.2 0.00 0.00 0.00 87 1010.7
20260509035350 21 84 0.0 3.2 0.00 0.00 0.00 87 1010.7
20260509034846 21 135 9.7 12.9 0.00 0.00 0.00 87 1010.3
20260509034344 21 141 1.6 12.9 0.00 0.00 0.00 87 1010.2
20260509033840 21 194 4.8 16.1 0.00 0.00 0.00 87 1009.8
20260509033338 21 134 6.4 12.9 0.00 0.00 0.00 87 1009.8
20260509032834 21 159 3.2 8.0 0.00 0.00 0.00 87 1009.8
20260509032332 21 98 3.2 16.1 0.00 0.00 0.00 86 1009.6
20260509031830 21 186 6.4 16.1 0.00 0.00 0.00 86 1008.9
20260509031326 21 113 19.3 29.0 0.00 0.00 0.00 86 1009.1
20260509030824 21 120 4.8 16.1 0.00 0.00 0.00 86 1009.1
20260509030322 21 125 1.6 3.2 0.00 0.00 0.00 86 1009.2
20260509025818 21 206 8.0 20.9 0.00 0.00 0.00 85 1008.9
20260509025314 22 154 14.5 20.9 0.00 0.00 0.00 85 1008.9
20260509024809 22 169 12.9 20.9 0.00 0.00 0.00 85 1008.7
20260509024306 22 208 11.3 20.9 0.00 0.00 0.00 84 1008.6
20260509023803 22 180 8.0 20.9 0.00 0.00 0.00 84 1008.6
20260509023300 22 137 0.0 16.1 0.00 0.00 0.00 84 1008.4
20260509022756 22 139 3.2 8.0 0.00 0.00 0.00 83 1008.4
20260509022254 22 172 3.2 12.9 0.00 0.00 0.00 83 1008.4
20260509021750 22 174 11.3 20.9 0.00 0.00 0.00 82 1008.3
20260509021248 22 152 9.7 20.9 0.00 0.00 0.00 82 1008.2
20260509020746 22 140 12.9 20.9 0.00 0.00 0.00 81 1008.3
20260509020243 22 172 4.8 12.9 0.00 0.00 0.00 81 1008.3
20260509015741 22 187 8.0 16.1 0.00 0.00 0.00 81 1008.5
20260509015239 22 158 3.2 8.0 0.00 0.00 0.00 81 1008.6
20260509014735 22 123 3.2 8.0 0.00 0.00 0.00 81 1008.7
20260509014232 22 129 0.0 0.0 0.00 0.00 0.00 81 1009.0
20260509013729 22 163 0.0 3.2 0.00 0.00 0.00 81 1008.7
20260509013224 22 164 6.4 8.0 0.00 0.00 0.00 81 1008.9
20260509012721 22 172 1.6 3.2 0.00 0.00 0.00 81 1008.8
20260509012218 22 177 0.0 0.0 0.00 0.00 0.00 81 1008.6
20260509011715 22 183 0.0 0.0 0.00 0.00 0.00 81 1008.7
20260509011213 22 198 0.0 3.2 0.00 0.00 0.00 80 1008.4
20260509010711 22 154 0.0 0.0 0.00 0.00 0.00 80 1008.4
20260509010207 22 162 0.0 0.0 0.00 0.00 0.00 80 1008.5
20260509005704 22 105 0.0 8.0 0.00 0.00 0.00 80 1008.3
20260509005201 22 151 3.2 16.1 0.00 0.00 0.00 79 1008.2
20260509004656 22 184 11.3 16.1 0.00 0.00 0.00 79 1008.2
20260509004154 22 183 9.7 12.9 0.00 0.00 0.00 78 1008.0
20260509003652 22 176 6.4 8.0 0.00 0.00 0.00 78 1008.0
20260509003149 22 141 1.6 8.0 0.00 0.00 0.00 78 1007.9
20260509002646 22 204 4.8 12.9 0.00 0.00 0.00 78 1008.0
20260509002143 22 152 3.2 16.1 0.00 0.00 0.00 78 1008.2
20260509001641 22 167 3.2 8.0 0.00 0.00 0.00 78 1008.3
20260509001136 22 158 0.0 8.0 0.00 0.00 0.00 78 1008.3
20260509000635 22 160 3.2 12.9 0.00 0.00 0.00 78 1008.5
20260509000131 22 257 8.0 12.9 0.00 0.00 0.00 77 1008.5
20260508235629 22 174 0.0 3.2 0.00 0.00 0.00 77 1008.6
20260508235125 22 162 0.0 12.9 0.00 0.00 0.00 77 1008.6
20260508234623 22 166 0.0 8.0 0.00 0.00 0.00 77 1008.7
20260508234119 22 157 3.2 8.0 0.00 0.00 0.00 77 1008.7
20260508233619 22 161 3.2 12.9 0.00 0.00 0.00 77 1008.5
20260508233116 22 138 0.0 8.0 0.00 0.00 0.00 77 1008.5
20260508232613 22 266 0.0 12.9 0.00 0.00 0.00 77 1008.7
20260508232109 23 146 11.3 20.9 0.00 0.00 0.00 76 1008.6
20260508231607 22 158 0.0 16.1 0.00 0.00 0.00 76 1008.5
20260508231104 23 142 6.4 8.0 0.00 0.00 0.00 76 1008.5
20260508230600 22 159 6.4 16.1 0.00 0.00 0.00 76 1008.6
20260508230057 23 145 6.4 20.9 0.00 0.00 0.00 76 1008.6
20260508225554 23 151 3.2 12.9 0.00 0.00 0.00 76 1008.6
20260508225051 23 98 8.0 12.9 0.00 0.00 0.00 75 1008.6
20260508224549 23 165 12.9 16.1 0.00 0.00 0.00 75 1008.5